Location: Cherry Grove
(44.1968°N, 92.8624°W)
Time: 13:41:09
(UTC-06:00)

N. Korean satellite - Visible Passes

Search period start: 15 December 2017 00:00
Search period end: 25 December 2017 00:00
Orbit: 461 x 513 km, 97.2° (Epoch: 14 December)

Date Brightness Start Highest point End Pass type
(mag) Time Alt. Az. Time Alt. Az. Time Alt. Az.
15 Dec 9.9 05:58:44 10° ENE 06:00:49 14° E 06:02:52 10° SE visible
15 Dec 6.6 18:08:02 10° SSE 18:11:45 87° WSW 18:15:32 10° NNW visible
16 Dec 6.9 17:44:39 10° SSE 17:48:14 47° ENE 17:51:53 10° N visible
16 Dec 10.0 19:20:18 10° WSW 19:22:01 13° W 19:23:46 10° WNW visible
17 Dec 7.7 06:43:50 10° NNE 06:47:27 50° E 06:50:59 10° S visible
17 Dec 7.7 17:21:42 10° SE 17:24:48 25° ENE 17:27:57 10° NNE visible
17 Dec 9.1 18:55:14 10° SSW 18:58:16 23° W 19:01:20 10° NW visible
18 Dec 9.1 06:20:38 10° NE 06:23:46 26° E 06:26:51 10° SSE visible
18 Dec 7.9 18:31:01 10° S 18:34:35 44° W 18:38:13 10° NNW visible
19 Dec 9.9 05:58:02 10° ENE 06:00:01 14° E 06:01:59 10° ESE visible
19 Dec 6.6 18:07:15 10° SSE 18:10:59 88° W 18:14:46 10° NNW visible
20 Dec 6.5 07:06:32 10° N 07:10:14 81° WNW 07:13:50 10° SSW visible
20 Dec 6.9 17:43:52 10° SSE 17:47:28 46° ENE 17:51:06 10° N visible
20 Dec 10.0 19:19:26 10° WSW 19:21:14 13° W 19:23:01 10° WNW visible
21 Dec 7.7 06:43:03 10° NNE 06:46:38 49° E 06:50:07 10° S visible
21 Dec 7.7 17:20:54 10° SE 17:24:00 25° ENE 17:27:09 10° NNE visible
21 Dec 9.1 18:54:23 10° SSW 18:57:27 24° W 19:00:33 10° NW visible
22 Dec 9.1 06:19:52 10° NE 06:22:56 25° E 06:25:58 10° SSE visible
22 Dec 7.8 18:30:10 10° S 18:33:46 44° W 18:37:24 10° NNW visible
23 Dec 9.9 05:57:18 10° ENE 05:59:10 14° E 06:01:02 10° ESE visible
23 Dec 6.6 18:06:25 10° SSE 18:10:10 89° WSW 18:13:57 10° NNW visible
24 Dec 6.5 07:05:44 10° N 07:09:23 82° WNW 07:12:56 10° SSW visible
24 Dec 6.9 17:43:02 10° SSE 17:46:37 46° ENE 17:50:15 10° N visible
24 Dec 10.0 19:18:32 10° WSW 19:20:23 13° W 19:22:14 10° WNW visible
